This demonstration page uses our WeatherBlox Daily Observations layout. Learn more.

Left ArrowRight Arrow

39.51506, -84.39828

Hourly Observations for February 24, 2020

Temp ( °F °C ) Dew Point ( °F °C ) Humidity (%) Winds ( mph kmh ) Pressure ( in mb ) Visibility ( mi km ) Precip ( " mm )
12:15 am 00:15 Clear 29 -1.8 25 -3.8 86 86 Calm 30.08 1019 10 16.0934 0 0
12:35 am 00:35 Clear 29 -1.7 25 -4.1 84 84 Calm 30.07 1018 10 16.0934 0 0
12:55 am 00:55 Clear 29 -1.8 25 -3.8 86 86 Calm 30.07 1018 10 16.0934 0 0
1:15 am 01:15 Clear 29 -1.6 25 -3.7 86 86 Calm 30.08 1019 10 16.0934 0 0
1:35 am 01:35 Clear 28 -2.1 25 -3.8 88 88 Calm 30.08 1019 10 16.0934 0 0
1:55 am 01:55 Clear 28 -2.3 25 -3.8 90 90 Calm 30.07 1018 10 16.0934 0 0
2:15 am 02:15 Clear 28 -2.2 25 -4 88 88 Calm 30.07 1018 10 16.0934 0 0
2:35 am 02:35 Clear 28 -2.2 25 -4.1 87 87 Calm 30.07 1018 10 16.0934 0 0
2:55 am 02:55 Clear 28 -2.2 25 -3.9 88 88 Calm 30.06 1018 10 16.0934 0 0
3:15 am 03:15 Clear 28 -2.4 25 -3.9 90 90 Calm 30.05 1018 10 16.0934 0 0
3:35 am 03:35 Clear 28 -2.4 24 -4.3 87 87 Calm 30.04 1017 10 16.0934 0 0
3:55 am 03:55 Clear 27 -2.6 24 -4.3 88 88 Calm 30.05 1018 10 16.0934 0 0
4:15 am 04:15 Clear 28 -2.4 25 -4 89 89 Calm 30.04 1017 10 16.0934 0 0
4:35 am 04:35 Clear 28 -2.2 25 -3.8 89 89 Calm 30.04 1017 10 16.0934 0 0
4:55 am 04:55 Clear 28 -2.1 25 -3.8 88 88 Calm 30.04 1017 10 16.0934 0 0
5:15 am 05:15 Clear 28 -2.2 25 -4 88 88 Calm 30.03 1017 10 16.0934 0 0
5:35 am 05:35 Mostly Cloudy 29 -1.6 26 -3.2 89 89 Calm 30.03 1017 10 16.0934 0 0
5:55 am 05:55 Mostly Cloudy 30 -1.1 28 -2.3 92 92 Calm 30.03 1017 10 16.0934 0 0
6:15 am 06:15 Cloudy 31 -0.5 29 -1.6 92 92 Calm 30.04 1017 10 16.0934 0 0
6:35 am 06:35 Cloudy 32 0.2 30 -1 92 92 Calm 30.03 1017 10 16.0934 0 0
6:55 am 06:55 Cloudy 33 0.3 31 -0.7 93 93 Calm 30.03 1017 7 11.26538 0 0
7:15 am 07:15 Cloudy 33 0.4 30 -1 90 90 Calm 30.03 1017 10 16.0934 0 0
7:35 am 07:35 Cloudy 33 0.8 30 -1.1 87 87 Calm 30.03 1017 10 16.0934 0 0
7:55 am 07:55 Cloudy 34 1 31 -0.7 89 89 Calm 30.03 1017 10 16.0934 0 0
8:15 am 08:15 Cloudy 34 1.2 31 -0.4 89 89 Calm 30.03 1017 10 16.0934 0 0
8:35 am 08:35 Cloudy with Drizzle 35 1.6 32 0 89 89 Calm 30.04 1017 10 16.0934 0 0
8:55 am 08:55 Cloudy with Light Rain 35 1.9 33 0.6 91 91 Calm 30.04 1017 10 16.0934 0 0
9:15 am 09:15 Cloudy with Light Rain 37 2.6 34 1.3 91 91 Calm 30.04 1017 10 16.0934 0 0
9:35 am 09:35 Partly Cloudy with Light Rain 38 3.1 35 1.8 91 91 Calm 30.04 1017 5 8.0467 0 0
9:55 am 09:55 Sunny with Light Rain 39 3.8 37 2.5 91 91 Calm 30.03 1017 7 11.26538 0 0
10:15 am 10:15 Sunny with Light Rain 41 4.8 38 3.3 90 90 Calm 30.02 1017 10 16.0934 0.01 0.254
10:35 am 10:35 Cloudy with Light Rain 41 5.2 38 3.6 90 90 S 6 9 30.01 1016 10 16.0934 0.01 0.254
10:55 am 10:55 Cloudy with Light Rain 42 5.5 39 4 90 90 S 9 15 30.01 1016 10 16.0934 0.01 0.254
11:15 am 11:15 Cloudy with Light Rain 42 5.7 40 4.5 92 92 S 9 15 30 1016 7 11.26538 0 0
11:35 am 11:35 Cloudy with Light Rain 43 5.9 41 4.8 93 93 SSE 7 11 29.99 1016 7 11.26538 0 0
11:55 am 11:55 Cloudy with Light Rain 43 5.9 40 4.6 91 91 S 9 15 29.98 1015 10 16.0934 0 0
12:15 pm 12:15 Cloudy with Light Rain 43 6 40 4.2 88 88 SSW 9 15 29.98 1015 10 16.0934 0 0
12:35 pm 12:35 Cloudy 43 6 40 4.4 90 90 S 7 11 29.97 1015 10 16.0934 0.01 0.254
12:55 pm 12:55 Cloudy with Mist and Fog 43 5.9 39 4.1 88 88 S 7 11 29.97 1015 7 11.26538 0.01 0.254
1:15 pm 13:15 Cloudy with Drizzle 42 5.7 40 4.6 93 93 S 8 13 29.95 1014 2 3.21868 0 0
1:35 pm 13:35 Cloudy with Drizzle 43 6 41 5 93 93 SSE 5 7 29.93 1014 7 11.26538 0 0
1:55 pm 13:55 Cloudy 43 6.2 41 5 92 92 S 6 9 29.92 1013 10 16.0934 0 0
2:15 pm 14:15 Cloudy 43 6.2 41 4.9 91 91 SSE 6 9 29.91 1013 10 16.0934 0 0
2:35 pm 14:35 Cloudy 44 6.5 41 4.9 90 90 SSE 8 13 29.89 1012 10 16.0934 0 0
2:55 pm 14:55 Cloudy 44 6.5 41 5 90 90 SE 8 13 29.88 1012 10 16.0934 0 0
3:15 pm 15:15 Cloudy 44 6.5 41 4.9 90 90 SE 7 11 29.87 1011 10 16.0934 0 0
3:35 pm 15:35 Cloudy 44 6.7 41 4.9 88 88 SE 6 9 29.87 1011 10 16.0934 0 0
3:55 pm 15:55 Cloudy with Light Rain 44 6.7 41 4.8 88 88 ESE 8 13 29.85 1011 10 16.0934 0 0
4:15 pm 16:15 Cloudy with Rain 44 6.6 41 4.8 88 88 SE 7 11 29.85 1011 7 11.26538 0 0
4:35 pm 16:35 Cloudy with Light Rain 43 6.3 41 5 91 91 ESE 7 11 29.84 1010 4 6.43736 0 0
4:55 pm 16:55 Cloudy with Light Rain 43 6.1 41 5.1 93 93 ESE 5 7 29.84 1010 7 11.26538 0 0
5:15 pm 17:15 Cloudy with Rain 43 6 41 5.1 94 94 E 7 11 29.83 1010 5 8.0467 0 0
5:35 pm 17:35 Cloudy with Light Rain 43 5.9 41 5.1 95 95 E 6 9 29.82 1010 3.5 5.63269 0 0
5:55 pm 17:55 Cloudy with Rain 42 5.8 41 5.1 95 95 E 5 7 29.82 1010 3 4.82802 0 0
6:15 pm 18:15 Cloudy with Light Rain 42 5.8 41 5 95 95 E 3 6 29.82 1010 3 4.82802 0 0
6:35 pm 18:35 Cloudy with Light Rain 42 5.6 41 5.1 97 97 Calm 29.83 1010 2 3.21868 0 0
6:55 pm 18:55 Cloudy with Light Rain 42 5.7 41 5.1 96 96 E 3 6 29.83 1010 5 8.0467 0.01 0.254
7:15 pm 19:15 Cloudy with Light Rain 42 5.6 41 5 96 96 Calm 29.84 1010 7 11.26538 0 0
7:35 pm 19:35 Cloudy with Rain 42 5.5 41 5 97 97 Calm 29.83 1010 3.5 5.63269 0 0
7:55 pm 19:55 Cloudy with Light Rain 42 5.3 41 5 98 98 NE 5 7 29.82 1010 4 6.43736 0 0
8:15 pm 20:15 Cloudy with Light Rain 41 5.2 41 5 99 99 NE 3 6 29.81 1010 5 8.0467 0 0
8:35 pm 20:35 Cloudy with Drizzle 41 5.2 41 5 99 99 NNE 6 9 29.8 1009 4 6.43736 0 0
8:55 pm 20:55 Cloudy with Drizzle 41 5.2 41 5.1 99 99 NNE 3 6 29.8 1009 3.5 5.63269 0 0
9:15 pm 21:15 Cloudy with Mist and Fog 41 5.2 41 5.1 99 99 NNE 3 6 29.8 1009 4 6.43736 0 0
9:35 pm 21:35 Cloudy with Mist and Fog 41 5.2 41 5.1 99 99 NNE 3 6 29.8 1009 5 8.0467 0 0
9:55 pm 21:55 Cloudy with Mist and Fog 41 5.2 41 5.1 99 99 NNE 3 6 29.8 1009 3.5 5.63269 0 0
10:15 pm 22:15 Cloudy with Mist and Fog 41 5.2 41 5.1 99 99 NNE 6 9 29.79 1009 3.5 5.63269 0 0
10:35 pm 22:35 Cloudy with Light Rain 42 5.3 41 5.2 99 99 NE 5 7 29.78 1008 4 6.43736 0 0
10:55 pm 22:55 Cloudy with Light Rain 41 5.2 41 5.1 99 99 Calm 29.78 1009 5 8.0467 0 0
11:15 pm 23:15 Cloudy 41 5.2 41 5 99 99 Calm 29.78 1009 7 11.26538 0 0
11:35 pm 23:35 Cloudy 41 5.2 41 5 99 99 NNE 3 6 29.77 1008 7 11.26538 0 0
11:55 pm 23:55 Cloudy 42 5.3 41 5.1 99 99 Calm 29.78 1008 10 16.0934 0 0

Powered by AerisWeather